Regional Weather Roundup
Issued by NWS

Home | Current Version | Previous Version | Graphics & Text | Print | Product List | Glossary On
Versions: 1 2 3 4 5 6 7 8 9 10 11 12 13 14 15 16 17 18 19 20 21 22 23 24 25 26 27 28 29 30 31 32 33 34 35 36 37 38 39 40 41 42 43 44 45 46 47 48 49 50
000
ASUS43 KDMX 290007
RWRIA

WEATHER ROUNDUP FOR IOWA
NATIONAL WEATHER SERVICE DES MOINES IA
700 PM CDT THU MAY 28 2015

NOTE: "FAIR" INDICATES FEW OR NO CLOUDS BELOW 12,000 FEET WITH NO
SIGNIFICANT WEATHER AND/OR OBSTRUCTIONS TO VISIBILITY.

* - THESE STATIONS ARE NOT NWS STATIONS...THUS NOT UNDER NWS
QUALITY CONTROL.  THEY ALSO DO NOT REPORT WEATHER SUCH
AS PRECIPITATION OR FOG.

IAZ001>003-012>014-020>022-031>034-043>046-290100-
   NORTHWEST IOWA

CITY           SKY/WX    TMP DP  RH WIND       PRES   REMARKS
CARROLL *      PTSUNNY   70  63  78 S14       29.95F
CHEROKEE *     CLOUDY    67  63  85 SE7       29.92S
DENISON *      MOSUNNY   68  68 100 SE14      29.91F
LE MARS *      SUNNY     72  59  64 SE13G20   29.90F
ORANGE CITY *  MOSUNNY   70  61  73 S15G22    29.89F
SHELDON *      SUNNY     70  59  68 S18G28    29.88F
SIOUX CITY     PTSUNNY   72  61  68 S17       29.88F
6HR MIN TEMP:  70; 6HR MAX TEMP:  77; 6HR PCP: TRACE;

SPENCER        CLOUDY    69  61  75 S21       29.93F
6HR MIN TEMP:  69; 6HR MAX TEMP:  81;

STORM LAKE *   PTSUNNY   68  63  83 S15G22    29.94S
$$

IAZ055>058-069>071-079>083-090>094-290100-
   SOUTHWEST IOWA

CITY           SKY/WX    TMP DP  RH WIND       PRES   REMARKS
ATLANTIC *     SUNNY     72  64  78 SE10      29.95F
AUDUBON *      MOSUNNY   70  64  83 SE8       29.96F
CLARINDA *     MOSUNNY   73  64  73 SE8       29.96F
COUNCIL BLFS * CLOUDY    72  68  88 S14       29.93S
CRESTON *      SUNNY     72  64  78 SE12      29.98F
HARLAN  *      CLOUDY    70  70 100 S9        29.98S
LAMONI         CLOUDY    75  64  68 SE7       29.98F
6HR MIN TEMP:  72; 6HR MAX TEMP:  76; 6HR PCP: TRACE;

RED OAK *      MOSUNNY   72  66  83 SE9       29.94F
SHENANDOAH *   PTSUNNY   73  64  73 S13       29.94F
$$

IAZ047>049-059>061-072>074-084-290100-
   CENTRAL IOWA

CITY           SKY/WX    TMP DP  RH WIND       PRES   REMARKS
AMES           CLOUDY    71  61  70 SE10      29.99F
6HR MIN TEMP:  71; 6HR MAX TEMP:  78; 6HR PCP: TRACE;

ANKENY *       SUNNY     73  64  73 SE9       29.99F
CHARITON *     CLOUDY    68  64  88 SE7       30.02F
DES MOINES     CLOUDY    74  63  68 SE13      29.98F
6HR MIN TEMP:  73; 6HR MAX TEMP:  78; 6HR PCP: TRACE;

GRINNELL*      CLOUDY    70  63  78 SE13      30.04S
KNOXVILLE *    PTSUNNY   70  64  83 SE12      30.00F
MARSHALLTOWN   CLOUDY    74  60  61 SE10      30.00F
6HR MIN TEMP:  74; 6HR MAX TEMP:  80;

PELLA *        LGT RAIN  69  67  93 SE8       30.03F
PERRY *        PTSUNNY   72  63  74 SE9       29.97F
$$

IAZ004>006-015-016-023>025-035-036-290100-
   NORTH CENTRAL IOWA

CITY           SKY/WX    TMP DP  RH WIND       PRES   REMARKS
ALGONA *       SUNNY     73 -35   1 S23       29.96F
CLARION *      PTSUNNY   73  57  56 S20       29.98F
ESTHERVILLE    PTSUNNY   70  59  68 S18G29    29.93F
6HR MIN TEMP:  70; 6HR MAX TEMP:  80;

FORT DODGE *   CLOUDY    72  61  68 S10G16    29.97F
MASON CITY     PTSUNNY   77  52  41 S20G28    29.98F
6HR MIN TEMP:  77; 6HR MAX TEMP:  82;

FOREST CITY *  MOSUNNY   73  54  49 S17G25    29.97S
IOWA FALLS *     N/A     73  57  56 S17       30.01F
$$

IAZ007>011-017>019-026>030-037>042-050>054-066-290100-
   NORTHEAST IOWA

CITY           SKY/WX    TMP DP  RH WIND       PRES   REMARKS
CEDAR RAPIDS   CLOUDY    77  54  44 S9        30.03F
6HR MIN TEMP:  77; 6HR MAX TEMP:  81;

CHARLES CITY * MOSUNNY   77  52  41 S15       30.01S
CLINTON *      MOSUNNY   79  50  36 S12       30.08S
DECORAH *      SUNNY     77  52  41 S10G21    30.02S
DUBUQUE        MOSUNNY   76  54  46 S9        30.06S
6HR MIN TEMP:  75; 6HR MAX TEMP:  80;

MONTICELLO *   SUNNY     79  50  36 SE9       30.04S
OELWEIN *      SUNNY     77  50  38 S14       30.04S
WATERLOO       CLOUDY    76  52  43 S10       30.01S
6HR MIN TEMP:  75; 6HR MAX TEMP:  82;

$$

IAZ064-065-067-068-078-290100-
   EAST CENTRAL IOWA

CITY           SKY/WX    TMP DP  RH WIND       PRES   REMARKS
DAVENPORT      PTSUNNY   80  50  34 S10       30.06S HX  80
6HR MIN TEMP:  79; 6HR MAX TEMP:  84;

IOWA CITY      CLOUDY    76  55  48 S8        30.04F
6HR MIN TEMP:  76; 6HR MAX TEMP:  81;

MT. PLEASANT * DRIZZLE   66  61  85 SW10      30.06F
MUSCATINE *    SUNNY     77  54  44 S6        30.04F
QUAD CITIES    PTSUNNY   78  53  41 S7        30.04S
6HR MIN TEMP:  78; 6HR MAX TEMP:  83;

$$

IAZ062-063-075>077-085>089-095>099-290100-
   SOUTHEAST IOWA

CITY           SKY/WX    TMP DP  RH WIND       PRES   REMARKS
BURLINGTON     CLOUDY    74  63  68 W7        30.04F
6HR MIN TEMP:  74; 6HR MAX TEMP:  82;

FAIRFIELD *    LGT RAIN  66  63  88 SW6       30.07S
FORT MADISON * DRIZZLE   68  64  88 W3        30.06F
KEOKUK *       CLOUDY    68  66  94 NW3       30.04F
OSKALOOSA *    RAIN      65  63  93 E14G21    30.05F
CENTERVILLE *  LGT RAIN  64  64 100 SE5       30.04F
OTTUMWA        RAIN      66  65  96 E10       30.05F FOG
6HR MIN TEMP:  66; 6HR MAX TEMP:  77; 6HR PCP:  0.91;

WASHINGTON *   PTSUNNY   70  64  83 SW21G31   30.08R HAZE
$$

ABBREVIATIONS USED IN REMARKS
   TC - TEMPERATURES IN CELSIUS
  WCI - WIND CHILL INDEX
   HX - HEAT INDEX
  VSB - VISIBILITY
$$




USA.gov is the U.S. government's official web portal to all federal, state and local government web resources and services.